Probability
0 0 0 0 0 0 0 0 0 0 0 0 0 0 0 0 0 0 0 0 0 0 0 0 0 1 7 19 25 20 12 9 9 14 35 64 78 78
0 0 0 0 0 0 0 0 0 0 0 0 0 0 0 0 0 0 0 0 0 0 0 0 0 0 3 9 13 11 7 6 8 14 32 56 69 69
0 0 0 0 0 0 0 0 0 0 0 0 0 0 0 0 0 0 0 0 0 0 0 0 0 0 0 1 2 2 3 4 6 11 23 41 53 57
0 0 0 0 0 0 0 0 0 0 0 0 0 0 0 0 0 0 0 0 0 0 0 0 0 0 0 0 0 0 1 2 4 6 13 25 36 41
0 0 0 0 0 0 0 0 0 0 0 0 0 0 0 0 0 0 0 0 0 0 0 0 0 0 0 0 0 0 0 1 1 3 6 12 19 23
0 0 0 0 0 0 0 0 0 0 0 0 0 0 0 0 0 0 0 0 0 0 0 0 0 0 0 0 0 0 0 0 0 1 2 4 7 8
0 0 0 0 0 0 0 0 0 0 0 0 0 0 0 0 0 0 0 0 0 0 0 0 0 0 0 0 0 0 0 0 0 0 0 0 1 2
0 0 0 0 0 0 0 0 0 0 0 0 0 0 0 0 0 0 0 0 0 0 0 0 0 0 0 0 0 0 0 0 0 0 0 0 0 0
0 0 0 0 0 0 0 0 0 0 0 0 0 0 0 0 0 0 0 0 0 0 0 0 0 0 0 0 0 0 0 0 0 0 0 0 0 0
0 0 0 0 0 0 0 0 0 0 0 0 0 0 0 0 0 0 0 0 0 0 0 0 0 0 0 0 0 0 0 0 0 0 0 0 0 0
0 0 0 0 0 0 0 0 0 0 0 0 0 0 0 0 0 0 0 0 0 0 0 0 0 0 0 0 0 0 0 0 0 0 0 0 0 0
0 0 0 0 0 0 0 0 0 0 0 0 0 0 0 0 0 0 0 0 0 0 0 0 0 0 0 0 0 0 0 0 0 0 0 0 0 0
0 0 0 0 0 0 0 0 0 0 0 0 0 0 0 0 0 0 0 0 0 0 0 0 0 0 0 0 0 0 0 0 0 0 0 0 0 0
0 0 0 0 0 0 0 0 0 0 0 0 0 0 0 0 0 0 0 0 0 0 0 0 0 0 0 0 0 0 0 0 0 0 0 0 0 0
0 0 0 0 0 0 0 0 0 0 0 0 0 0 0 0 0 0 0 0 0 0 0 0 0 0 0 0 0 0 0 0 0 0 0 0 0 0
0 0 0 0 0 0 0 0 0 0 0 0 0 0 0 0 0 0 0 0 0 0 0 0 0 0 0 0 0 0 0 0 0 0 0 0 0 0
0 0 0 0 0 0 0 0 0 0 0 0 0 0 0 0 0 0 0 0 0 0 0 0 0 0 0 0 0 0 0 0 0 0 0 0 0 0
0 0 0 0 0 0 0 0 0 0 0 0 0 0 0 0 0 0 0 0 0 0 0 0 0 0 0 0 0 0 0 0 0 0 0 0 0 0
0 0 0 0 0 0 0 0 0 0 0 0 0 0 0 0 0 0 0 0 0 0 0 0 0 0 0 0 0 0 0 0 0 0 0 0 0 0
0 0 0 0 0 0 0 0 0 0 0 0 0 0 0 0 0 0 0 0 0 0 0 0 0 0 0 0 0 0 0 0 0 0 0 0 0 0
0 0 0 0 0 0 0 0 0 0 0 0 0 0 0 0 0 0 0 0 0 0 0 0 0 0 0 0 0 0 0 0 0 0 0 0 0 0
0 0 0 0 0 0 0 0 0 0 0 0 0 0 0 0 0 0 0 0 0 0 0 0 0 0 0 0 0 0 0 0 0 0 0 0 0 0
0 0 0 0 0 0 0 0 0 0 0 0 0 0 0 0 0 0 0 0 0 0 0 0 0 0 0 0 0 0 0 0 0 0 0 0 0 0
Wind_Speed
9 10 9 9 9 9 9 9 9 11 10 5 4 5 8 8 13 10 9 13 14 12 12 13 10 7 10 13 15 21 24 22 18 18 19 21 22 21
8 9 9 8 8 8 8 8 8 9 9 5 6 8 10 11 15 11 10 17 13 10 10 13 12 8 9 12 13 17 23 23 21 19 21 21 21 21
8 8 9 8 6 6 6 6 6 6 9 9 7 8 10 10 10 9 9 8 7 8 8 12 13 9 9 12 13 16 22 25 24 22 22 22 22 21
8 7 7 6 7 6 6 6 5 6 8 12 10 9 10 9 9 10 9 7 5 6 7 10 12 9 8 11 13 16 19 23 25 23 22 22 22 22
10 10 9 8 7 6 7 5 5 7 7 9 11 10 8 7 7 8 8 6 5 4 4 8 12 9 6 9 12 15 18 22 25 25 23 21 21 23
11 11 11 10 9 7 8 7 7 8 7 7 9 9 7 6 4 4 4 3 3 2 1 4 9 9 6 8 11 13 16 20 24 25 25 23 21 22
11 11 12 17 20 13 11 9 9 7 7 6 7 8 7 5 4 4 3 3 2 2 0 1 3 3 3 5 7 11 15 18 22 24 25 26 25 25
10 11 12 12 19 18 21 19 17 12 9 6 6 8 8 8 7 6 5 3 1 1 1 1 2 3 2 3 7 11 13 16 19 21 23 26 28 29
9 10 12 14 18 6 13 17 15 19 17 9 7 7 8 9 9 8 7 5 3 3 1 1 2 3 2 3 9 12 13 14 17 19 21 24 27 30
9 10 11 12 15 12 9 10 8 8 12 9 6 7 8 9 7 7 8 7 6 4 1 1 2 3 2 2 9 12 13 14 16 18 21 23 26 29
9 11 14 11 22 23 13 12 11 8 13 17 16 14 15 15 11 6 6 4 3 1 1 2 1 3 2 1 4 11 12 13 15 18 22 25 28 27
8 11 18 20 23 23 13 12 13 10 10 11 11 12 9 10 13 5 4 4 4 2 1 2 1 1 2 0 1 5 8 11 16 20 26 31 30 20
9 9 11 24 23 23 19 12 17 14 10 9 8 7 6 5 5 5 4 3 3 4 4 2 1 1 3 1 1 3 5 7 10 16 26 31 31 26
8 8 11 23 22 22 17 20 23 17 9 9 8 9 9 9 8 7 6 5 6 8 8 5 1 2 2 1 2 4 7 9 11 12 13 21 23 28
7 16 19 22 19 15 21 24 18 11 10 10 10 9 8 9 8 7 6 5 5 5 5 5 4 1 2 2 4 6 8 9 11 13 13 12 12 15
6 11 16 18 15 16 16 14 11 11 11 9 10 9 9 8 8 8 7 7 4 4 5 4 1 2 1 2 7 11 9 9 10 13 15 14 11 10
5 5 6 7 9 9 9 10 10 10 11 10 10 10 10 10 9 9 7 7 5 5 5 5 6 10 12 7 7 9 12 15 13 14 16 16 12 10
7 4 5 6 7 8 9 9 9 10 10 10 10 10 10 10 10 9 8 8 7 7 5 4 2 6 7 10 14 8 13 15 14 12 14 19 15 10
4 3 4 4 5 5 6 6 7 8 8 8 9 9 10 10 10 10 10 8 8 7 7 6 3 3 10 6 9 14 10 15 16 14 12 14 16 12
2 3 3 4 4 4 4 4 5 7 7 8 8 9 10 10 10 11 10 11 9 8 8 9 9 6 6 7 6 8 12 8 15 18 16 14 13 17
5 4 3 3 3 3 3 3 4 5 6 6 7 8 8 9 10 10 10 15 11 9 10 9 8 9 5 7 11 10 12 16 12 13 18 17 13 10
6 5 4 4 3 3 3 3 3 4 5 5 6 6 7 7 9 10 10 9 9 9 9 8 9 9 8 11 14 15 15 15 19 22 17 11 8 10
8 6 5 4 3 3 3 3 3 2 3 3 4 5 6 6 6 7 8 9 9 9 9 9 9 10 10 11 12 13 17 15 12 14 15 21 26 28
Wind_Direction
274 272 271 272 272 271 271 273 283 295 300 286 283 307 317 307 306 308 307 306 309 320 333 336 319 270 225 208 202 200 197 193 191 187 184 183 181 181
276 275 277 276 276 275 273 271 270 278 286 285 286 289 292 294 297 301 297 296 295 306 329 337 327 286 231 208 198 191 189 186 185 188 188 184 181 178
288 290 293 296 301 303 297 292 291 292 291 294 287 287 282 281 287 287 283 277 273 294 325 336 330 301 242 210 195 187 184 183 184 189 191 188 184 177
324 320 318 326 325 322 318 312 309 299 297 299 297 292 282 277 275 276 277 269 257 284 321 338 333 304 247 210 193 186 183 183 184 186 190 189 183 174
357 353 342 336 341 338 333 332 316 312 305 300 300 294 285 274 275 274 267 257 256 263 320 348 338 310 249 207 191 185 183 182 183 183 184 184 179 173
4 359 347 347 348 343 344 346 329 319 313 313 309 304 293 280 272 273 274 242 241 233 332 348 331 311 246 205 193 187 183 181 181 181 178 175 173 170
357 353 344 355 353 2 355 356 345 332 329 331 328 328 327 334 337 331 298 272 243 209 91 357 334 313 240 208 196 189 183 181 181 180 177 172 169 166
351 347 341 344 350 0 358 359 356 347 344 343 336 334 332 335 338 339 330 309 298 316 87 17 356 288 237 189 187 187 185 180 178 177 174 170 167 161
349 347 344 343 345 339 352 355 350 352 349 348 330 328 325 332 334 337 337 330 326 330 9 36 4 300 241 195 184 186 186 179 173 170 168 166 163 158
343 342 338 334 330 4 355 343 340 346 342 340 332 325 331 329 332 328 311 299 281 261 213 93 11 305 263 188 188 185 184 178 170 163 160 158 156 152
345 348 344 337 344 5 3 346 344 352 349 349 354 354 355 350 358 350 330 312 291 247 168 119 41 316 296 188 185 183 178 173 164 156 152 148 143 138
349 346 343 355 358 2 5 351 350 357 346 341 344 346 344 344 4 360 326 316 307 305 87 122 93 346 289 344 149 166 167 162 155 147 142 137 131 125
354 345 341 359 4 3 6 360 359 3 346 340 340 340 340 341 340 330 303 282 284 294 357 10 101 94 287 256 84 128 137 137 134 133 134 132 131 129
353 341 351 6 8 6 7 8 6 3 352 351 353 353 351 348 340 326 304 278 254 264 294 305 282 148 241 224 121 107 105 107 112 112 113 115 116 122
360 0 6 10 9 4 7 11 7 359 357 357 356 352 343 334 333 334 329 319 289 264 277 260 239 216 242 220 130 123 108 95 103 108 105 104 109 117
7 358 5 6 11 8 7 6 2 1 3 355 351 346 344 348 355 355 351 350 345 330 332 338 234 144 150 194 134 126 116 113 112 106 103 94 86 87
16 360 356 357 2 2 2 4 3 2 2 355 356 355 357 0 2 0 1 5 11 352 344 8 58 75 60 45 121 116 116 111 112 114 109 99 86 88
19 351 352 355 357 358 358 357 359 2 359 357 359 359 0 2 3 4 10 13 12 3 354 344 86 98 79 42 24 111 117 115 114 112 115 113 104 95
14 333 330 334 339 345 346 347 349 349 350 354 360 0 1 5 8 9 12 13 12 9 1 352 355 116 120 95 15 22 109 121 119 111 107 112 115 115
320 305 307 311 318 328 337 340 340 346 354 357 359 2 3 6 9 11 13 18 16 15 20 22 24 42 100 111 96 39 42 103 123 120 114 107 102 108
317 301 289 291 297 309 320 329 336 343 352 354 359 360 2 6 9 10 12 19 26 25 30 27 25 45 74 95 94 79 62 64 85 117 125 121 116 113
319 307 295 280 279 287 301 318 334 344 353 357 355 356 358 5 8 9 12 15 21 27 33 34 34 48 67 95 104 102 96 88 81 80 74 89 126 134
330 318 303 289 271 260 262 281 303 322 343 351 354 355 357 2 4 10 13 17 23 29 37 48 54 61 70 83 95 99 98 96 92 83 75 84 94 100